| time (UTC) | temp F | wind direction | speed knots | gust knots | rain 1hr in | rain 24hr in | rain mn in | humidity % | barometer mb |
| 20260503223846 | 86 | 332 | 0.9 | 2.6 | 0.00 | 0.00 | 0.00 | 34 | 1007.5 |
| 20260503223349 | 86 | 314 | 0.9 | 1.7 | 0.00 | 0.00 | 0.00 | 35 | 1007.6 |
| 20260503222847 | 86 | 281 | 0.0 | 1.7 | 0.00 | 0.00 | 0.00 | 30 | 1007.6 |
| 20260503222348 | 86 | 316 | 0.0 | 3.5 | 0.00 | 0.00 | 0.00 | 34 | 1007.8 |
| 20260503221827 | 86 | 273 | 0.0 | 3.5 | 0.00 | 0.00 | 0.00 | 35 | 1007.8 |
| 20260503221330 | 86 | 329 | 0.0 | 2.6 | 0.00 | 0.00 | 0.00 | 35 | 1007.9 |
| 20260503220834 | 86 | 322 | 1.7 | 2.6 | 0.00 | 0.00 | 0.00 | 33 | 1008.0 |
| 20260503220338 | 87 | 301 | 0.0 | 2.6 | 0.00 | 0.00 | 0.00 | 33 | 1008.0 |
| 20260503215836 | 88 | 147 | 0.0 | 2.6 | 0.00 | 0.00 | 0.00 | 28 | 1008.2 |
| 20260503215339 | 88 | 323 | 0.9 | 1.7 | 0.00 | 0.00 | 0.00 | 32 | 1008.2 |
| 20260503214840 | 89 | 323 | 0.0 | 3.5 | 0.00 | 0.00 | 0.00 | 30 | 1008.3 |
| 20260503214339 | 89 | 286 | 1.7 | 3.5 | 0.00 | 0.00 | 0.00 | 30 | 1008.3 |
| 20260503213839 | 91 | 37 | 0.9 | 1.7 | 0.00 | 0.00 | 0.00 | 32 | 1008.4 |
| 20260503213339 | 91 | 38 | 0.0 | 1.7 | 0.00 | 0.00 | 0.00 | 29 | 1008.5 |
| 20260503212841 | 90 | 274 | 0.0 | 1.7 | 0.00 | 0.00 | 0.00 | 29 | 1008.5 |
| 20260503212342 | 90 | 319 | 0.0 | 1.7 | 0.00 | 0.00 | 0.00 | 28 | 1008.6 |
| 20260503211841 | 90 | 318 | 0.9 | 1.7 | 0.00 | 0.00 | 0.00 | 31 | 1008.6 |
| 20260503211340 | 90 | 316 | 0.9 | 1.7 | 0.00 | 0.00 | 0.00 | 31 | 1008.7 |
| 20260503210841 | 90 | 328 | 0.0 | 1.7 | 0.00 | 0.00 | 0.00 | 31 | 1008.7 |
| 20260503210341 | 89 | 308 | 0.9 | 1.7 | 0.00 | 0.00 | 0.00 | 33 | 1008.8 |
| 20260503205843 | 89 | 267 | 0.9 | 1.7 | 0.00 | 0.00 | 0.00 | 32 | 1008.8 |
| 20260503205343 | 90 | 304 | 0.0 | 1.7 | 0.00 | 0.00 | 0.00 | 33 | 1009.0 |
| 20260503204843 | 90 | 324 | 0.0 | 1.7 | 0.00 | 0.00 | 0.00 | 33 | 1009.0 |
| 20260503204343 | 90 | 323 | 0.9 | 1.7 | 0.00 | 0.00 | 0.00 | 35 | 1009.0 |
| 20260503203904 | 90 | 308 | 0.0 | 1.7 | 0.00 | 0.00 | 0.00 | 33 | 1009.1 |
| 20260503203343 | 89 | 318 | 0.9 | 1.7 | 0.00 | 0.00 | 0.00 | 33 | 1009.2 |
| 20260503202902 | 89 | 315 | 0.0 | 1.7 | 0.00 | 0.00 | 0.00 | 34 | 1009.3 |
| 20260503202400 | 88 | 315 | 0.0 | 1.7 | 0.00 | 0.00 | 0.00 | 38 | 1009.3 |
| 20260503201839 | 88 | 315 | 0.0 | 1.7 | 0.00 | 0.00 | 0.00 | 37 | 1009.4 |
| 20260503201340 | 88 | 311 | 0.9 | 1.7 | 0.00 | 0.00 | 0.00 | 39 | 1009.5 |
| 20260503200841 | 87 | 330 | 0.9 | 2.6 | 0.00 | 0.00 | 0.00 | 39 | 1009.6 |
| 20260503200343 | 86 | 328 | 0.9 | 2.6 | 0.00 | 0.00 | 0.00 | 40 | 1009.7 |
| 20260503195842 | 86 | 309 | 0.9 | 1.7 | 0.00 | 0.00 | 0.00 | 40 | 1009.7 |
| 20260503195327 | 86 | 310 | 0.9 | 1.7 | 0.00 | 0.00 | 0.00 | 41 | 1009.8 |
| 20260503194830 | 85 | 313 | 0.9 | 1.7 | 0.00 | 0.00 | 0.00 | 41 | 1009.9 |
| 20260503194334 | 85 | 264 | 0.9 | 1.7 | 0.00 | 0.00 | 0.00 | 40 | 1009.9 |
| 20260503193839 | 85 | 313 | 0.0 | 1.7 | 0.00 | 0.00 | 0.00 | 40 | 1010.0 |
| 20260503193401 | 85 | 313 | 0.9 | 1.7 | 0.00 | 0.00 | 0.00 | 41 | 1010.1 |
| 20260503192901 | 85 | 320 | 0.0 | 1.7 | 0.00 | 0.00 | 0.00 | 40 | 1010.0 |
| 20260503192345 | 84 | 328 | 0.9 | 1.7 | 0.00 | 0.00 | 0.00 | 42 | 1010.0 |
| 20260503191846 | 84 | 317 | 0.9 | 1.7 | 0.00 | 0.00 | 0.00 | 43 | 1010.1 |
| 20260503191346 | 83 | 199 | 0.0 | 1.7 | 0.00 | 0.00 | 0.00 | 49 | 1010.2 |
| 20260503190845 | 82 | 288 | 0.0 | 1.7 | 0.00 | 0.00 | 0.00 | 44 | 1010.2 |
| 20260503190346 | 82 | 255 | 0.9 | 1.7 | 0.00 | 0.00 | 0.00 | 43 | 1010.3 |
| 20260503185847 | 82 | 257 | 0.9 | 2.6 | 0.00 | 0.00 | 0.00 | 46 | 1010.4 |
| 20260503185327 | 82 | 313 | 0.9 | 1.7 | 0.00 | 0.00 | 0.00 | 47 | 1010.4 |
| 20260503184829 | 81 | 313 | 0.0 | 1.7 | 0.00 | 0.00 | 0.00 | 47 | 1010.5 |
| 20260503184349 | 81 | 313 | 0.0 | 1.7 | 0.00 | 0.00 | 0.00 | 48 | 1010.6 |
| 20260503183828 | 81 | 313 | 0.0 | 1.7 | 0.00 | 0.00 | 0.00 | 49 | 1010.7 |
| 20260503183329 | 80 | 313 | 0.0 | 0.9 | 0.00 | 0.00 | 0.00 | 52 | 1010.7 |
| 20260503182829 | 80 | 307 | 0.0 | 1.7 | 0.00 | 0.00 | 0.00 | 50 | 1010.8 |
| 20260503182333 | 79 | 307 | 0.0 | 1.7 | 0.00 | 0.00 | 0.00 | 52 | 1010.9 |
| 20260503181834 | 79 | 305 | 0.9 | 1.7 | 0.00 | 0.00 | 0.00 | 52 | 1010.9 |
| 20260503181336 | 77 | 290 | 0.0 | 1.7 | 0.00 | 0.00 | 0.00 | 54 | 1011.0 |
| 20260503180838 | 77 | 274 | 0.9 | 1.7 | 0.00 | 0.00 | 0.00 | 52 | 1011.0 |
| 20260503180342 | 75 | 276 | 0.0 | 1.7 | 0.00 | 0.00 | 0.00 | 55 | 1011.0 |
| 20260503175840 | 75 | 262 | 0.9 | 1.7 | 0.00 | 0.00 | 0.00 | 51 | 1011.1 |
| 20260503175404 | 76 | 284 | 0.0 | 1.7 | 0.00 | 0.00 | 0.00 | 58 | 1011.2 |
| 20260503174846 | 75 | 298 | 0.9 | 0.9 | 0.00 | 0.00 | 0.00 | 56 | 1011.2 |
| 20260503174344 | 75 | 300 | 0.9 | 1.7 | 0.00 | 0.00 | 0.00 | 59 | 1011.2 |
| 20260503173903 | 74 | 14 | 0.0 | 1.7 | 0.00 | 0.00 | 0.00 | 57 | 1011.2 |
| 20260503173342 | 73 | 9 | 0.0 | 1.7 | 0.00 | 0.00 | 0.00 | 61 | 1011.3 |
| 20260503172842 | 73 | 333 | 0.0 | 1.7 | 0.00 | 0.00 | 0.00 | 59 | 1011.4 |
| 20260503172343 | 73 | 20 | 0.0 | 1.7 | 0.00 | 0.00 | 0.00 | 61 | 1011.4 |
| 20260503171827 | 72 | 290 | 0.9 | 0.9 | 0.00 | 0.00 | 0.00 | 61 | 1011.5 |
| 20260503171330 | 71 | 278 | 0.9 | 1.7 | 0.00 | 0.00 | 0.00 | 61 | 1011.4 |
| 20260503170833 | 70 | 278 | 0.9 | 1.7 | 0.00 | 0.00 | 0.00 | 62 | 1011.4 |
| 20260503170333 | 70 | 349 | 0.0 | 1.7 | 0.00 | 0.00 | 0.00 | 65 | 1011.6 |
| 20260503150835 | 59 | 83 | 0.0 | 0.0 | 0.00 | 0.00 | 0.00 | 85 | 1012.0 |
| 20260503150338 | 58 | 83 | 0.0 | 0.0 | 0.00 | 0.00 | 0.00 | 86 | 1012.0 |
| 20260503131335 | 51 | 117 | 0.0 | 1.7 | 0.00 | 0.00 | 0.00 | 91 | 1011.7 |
| 20260503130836 | 50 | 118 | 0.0 | 1.7 | 0.00 | 0.00 | 0.00 | 91 | 1011.6 |
| 20260503130338 | 50 | 143 | 0.0 | 1.7 | 0.00 | 0.00 | 0.00 | 91 | 1011.6 |
| 20260503110827 | 52 | 137 | 0.0 | 1.7 | 0.00 | 0.00 | 0.00 | 90 | 1011.9 |
| 20260503110408 | 52 | 129 | 0.0 | 1.7 | 0.00 | 0.00 | 0.00 | 90 | 1011.9 |
| 20260503090348 | 55 | 154 | 0.0 | 0.9 | 0.00 | 0.01 | 0.00 | 86 | 1012.1 |
| 20260503081340 | 56 | 154 | 0.0 | 0.0 | 0.00 | 0.01 | 0.00 | 85 | 1012.0 |
| 20260503080824 | 57 | 154 | 0.0 | 0.0 | 0.00 | 0.01 | 0.00 | 83 | 1012.0 |
| 20260503080332 | 57 | 154 | 0.0 | 0.0 | 0.00 | 0.01 | 0.00 | 84 | 1012.0 |
| 20260503072841 | 59 | 154 | 0.0 | 0.0 | 0.00 | 0.01 | 0.00 | 81 | 1012.2 |
| 20260503072342 | 59 | 154 | 0.0 | 0.0 | 0.00 | 0.01 | 0.00 | 81 | 1012.2 |
| 20260503071845 | 59 | 154 | 0.0 | 1.7 | 0.00 | 0.01 | 0.00 | 81 | 1012.1 |
| 20260503071344 | 59 | 154 | 0.0 | 0.9 | 0.00 | 0.01 | 0.00 | 81 | 1012.1 |
| 20260503070829 | 59 | 168 | 0.9 | 1.7 | 0.00 | 0.01 | 0.00 | 80 | 1012.1 |
| 20260503070333 | 60 | 176 | 0.0 | 1.7 | 0.00 | 0.01 | 0.00 | 80 | 1012.2 |
| 20260503060336 | 61 | 130 | 0.0 | 1.7 | 0.00 | 0.01 | 0.01 | 78 | 1011.8 |
| 20260503054842 | 61 | 130 | 0.0 | 0.0 | 0.00 | 0.01 | 0.01 | 78 | 1011.9 |
| 20260503054342 | 61 | 130 | 0.0 | 0.0 | 0.00 | 0.01 | 0.01 | 79 | 1012.0 |
| 20260503053842 | 61 | 130 | 0.0 | 0.0 | 0.00 | 0.01 | 0.01 | 79 | 1012.1 |
| 20260503053345 | 61 | 130 | 0.0 | 0.0 | 0.00 | 0.01 | 0.01 | 78 | 1012.2 |
| 20260503052847 | 61 | 130 | 0.0 | 0.0 | 0.00 | 0.01 | 0.01 | 78 | 1012.2 |
| 20260503052348 | 61 | 130 | 0.0 | 1.7 | 0.00 | 0.01 | 0.01 | 78 | 1012.3 |
| 20260503051828 | 62 | 130 | 0.0 | 0.0 | 0.00 | 0.01 | 0.01 | 76 | 1012.4 |
| 20260503051335 | 62 | 130 | 0.0 | 0.0 | 0.00 | 0.01 | 0.01 | 77 | 1012.5 |
| 20260503050857 | 61 | 130 | 0.0 | 0.0 | 0.00 | 0.01 | 0.01 | 77 | 1012.4 |
| 20260503050338 | 62 | 130 | 0.0 | 0.0 | 0.00 | 0.01 | 0.01 | 77 | 1012.4 |
| 20260503045856 | 62 | 130 | 0.0 | 1.7 | 0.00 | 0.01 | 0.01 | 76 | 1012.5 |
| 20260503045337 | 63 | 130 | 0.0 | 1.7 | 0.00 | 0.01 | 0.01 | 73 | 1012.4 |
| 20260503044844 | 63 | 130 | 0.0 | 1.7 | 0.00 | 0.01 | 0.01 | 73 | 1012.4 |
| 20260503044345 | 63 | 84 | 0.0 | 1.7 | 0.00 | 0.01 | 0.01 | 74 | 1012.5 |
| 20260503043845 | 62 | 79 | 0.0 | 1.7 | 0.00 | 0.01 | 0.01 | 75 | 1012.3 |
| 20260503043345 | 63 | 79 | 0.0 | 1.7 | 0.00 | 0.01 | 0.01 | 75 | 1012.3 |
| 20260503042847 | 63 | 79 | 0.0 | 1.7 | 0.00 | 0.01 | 0.01 | 73 | 1012.4 |
| 20260503042346 | 63 | 79 | 0.0 | 0.0 | 0.00 | 0.01 | 0.01 | 73 | 1012.4 |
| 20260503041846 | 63 | 79 | 0.0 | 1.7 | 0.00 | 0.01 | 0.01 | 74 | 1012.4 |
| 20260503041345 | 63 | 79 | 0.0 | 1.7 | 0.00 | 0.01 | 0.01 | 73 | 1012.4 |
| 20260503040846 | 63 | 79 | 0.0 | 1.7 | 0.00 | 0.01 | 0.01 | 73 | 1012.4 |
| 20260503040349 | 64 | 79 | 0.0 | 1.7 | 0.00 | 0.01 | 0.01 | 72 | 1012.4 |
| 20260503035847 | 64 | 79 | 0.9 | 1.7 | 0.00 | 0.01 | 0.01 | 70 | 1012.4 |
| 20260503035347 | 64 | 114 | 0.0 | 1.7 | 0.00 | 0.01 | 0.01 | 71 | 1012.3 |
| 20260503034850 | 65 | 119 | 0.9 | 1.7 | 0.00 | 0.01 | 0.01 | 69 | 1012.2 |
| 20260503034336 | 65 | 147 | 0.0 | 1.7 | 0.00 | 0.01 | 0.01 | 70 | 1012.2 |
| 20260503033836 | 65 | 81 | 0.9 | 1.7 | 0.00 | 0.01 | 0.01 | 70 | 1012.2 |
| 20260503033342 | 65 | 178 | 0.9 | 2.6 | 0.00 | 0.01 | 0.01 | 69 | 1012.1 |
| 20260503032841 | 65 | 164 | 0.9 | 3.5 | 0.00 | 0.01 | 0.01 | 69 | 1012.1 |
| 20260503032342 | 65 | 157 | 0.0 | 3.5 | 0.00 | 0.01 | 0.01 | 68 | 1012.0 |
| 20260503031847 | 66 | 156 | 1.7 | 3.5 | 0.00 | 0.01 | 0.01 | 68 | 1012.0 |
| 20260503031347 | 66 | 145 | 1.7 | 6.1 | 0.00 | 0.01 | 0.01 | 68 | 1012.0 |
| 20260503030828 | 66 | 134 | 2.6 | 6.1 | 0.00 | 0.01 | 0.01 | 67 | 1011.8 |
| 20260503030357 | 67 | 176 | 1.7 | 6.1 | 0.00 | 0.01 | 0.01 | 66 | 1011.8 |
| 20260503025835 | 67 | 165 | 2.6 | 6.1 | 0.00 | 0.01 | 0.01 | 65 | 1011.7 |
| 20260503025336 | 68 | 134 | 2.6 | 7.0 | 0.00 | 0.01 | 0.01 | 64 | 1011.7 |
| 20260503024837 | 69 | 104 | 1.7 | 6.1 | 0.00 | 0.01 | 0.01 | 63 | 1011.6 |
| 20260503024338 | 70 | 169 | 2.6 | 8.7 | 0.00 | 0.01 | 0.01 | 61 | 1011.4 |
| 20260503023840 | 71 | 170 | 3.5 | 8.7 | 0.00 | 0.01 | 0.01 | 60 | 1011.3 |
| 20260503023401 | 71 | 160 | 1.7 | 7.8 | 0.00 | 0.01 | 0.01 | 60 | 1011.2 |
| 20260503022902 | 71 | 176 | 2.6 | 7.8 | 0.00 | 0.01 | 0.01 | 59 | 1011.3 |
| 20260503022339 | 71 | 178 | 2.6 | 7.0 | 0.00 | 0.01 | 0.01 | 59 | 1011.3 |
| 20260503021840 | 71 | 156 | 1.7 | 6.1 | 0.00 | 0.01 | 0.01 | 60 | 1011.1 |
| 20260503021348 | 71 | 185 | 1.7 | 6.1 | 0.00 | 0.01 | 0.01 | 59 | 1010.9 |
| 20260503020828 | 71 | 166 | 2.6 | 6.1 | 0.00 | 0.01 | 0.01 | 59 | 1010.9 |
| 20260503020336 | 72 | 149 | 3.5 | 6.1 | 0.00 | 0.01 | 0.01 | 59 | 1010.7 |
| 20260503015839 | 72 | 178 | 0.9 | 1.7 | 0.00 | 0.01 | 0.01 | 60 | 1010.7 |
| 20260503015339 | 73 | 180 | 0.9 | 1.7 | 0.00 | 0.01 | 0.01 | 59 | 1010.7 |
| 20260503014842 | 73 | 272 | 0.0 | 1.7 | 0.00 | 0.01 | 0.01 | 58 | 1010.6 |
| 20260503014342 | 72 | 272 | 0.0 | 1.7 | 0.00 | 0.01 | 0.01 | 61 | 1010.6 |
| 20260503013842 | 72 | 272 | 0.0 | 1.7 | 0.00 | 0.01 | 0.01 | 63 | 1010.5 |
| 20260503013344 | 72 | 272 | 0.0 | 1.7 | 0.00 | 0.01 | 0.01 | 61 | 1010.5 |
| 20260503012904 | 72 | 272 | 0.0 | 0.9 | 0.00 | 0.01 | 0.01 | 61 | 1010.5 |
| 20260503012346 | 72 | 272 | 0.0 | 1.7 | 0.00 | 0.01 | 0.01 | 61 | 1010.6 |
| 20260503011825 | 72 | 272 | 0.0 | 1.7 | 0.00 | 0.01 | 0.01 | 60 | 1010.6 |
| 20260503011336 | 72 | 265 | 0.0 | 1.7 | 0.00 | 0.01 | 0.01 | 61 | 1010.5 |
| 20260503010856 | 72 | 265 | 0.0 | 1.7 | 0.00 | 0.01 | 0.01 | 61 | 1010.6 |
| 20260503010345 | 72 | 265 | 0.0 | 1.7 | 0.00 | 0.01 | 0.01 | 62 | 1010.6 |
| 20260503005828 | 72 | 265 | 0.0 | 1.7 | 0.00 | 0.01 | 0.01 | 62 | 1010.6 |
| 20260503005328 | 72 | 232 | 0.9 | 1.7 | 0.00 | 0.01 | 0.01 | 61 | 1010.5 |
| 20260503004855 | 72 | 316 | 0.0 | 1.7 | 0.00 | 0.01 | 0.01 | 62 | 1010.6 |
| 20260503004334 | 72 | 316 | 0.0 | 1.7 | 0.00 | 0.01 | 0.01 | 60 | 1010.7 |
| 20260503003834 | 71 | 316 | 0.0 | 1.7 | 0.00 | 0.01 | 0.01 | 62 | 1010.7 |
| 20260503003340 | 72 | 305 | 0.0 | 1.7 | 0.00 | 0.01 | 0.01 | 61 | 1010.7 |
| 20260503002842 | 71 | 274 | 0.0 | 1.7 | 0.00 | 0.01 | 0.01 | 60 | 1010.7 |
| 20260503002342 | 72 | 272 | 0.0 | 1.7 | 0.00 | 0.01 | 0.01 | 61 | 1010.7 |
| 20260503001902 | 71 | 261 | 0.9 | 1.7 | 0.00 | 0.01 | 0.01 | 59 | 1010.7 |
| 20260503001341 | 71 | 281 | 0.9 | 1.7 | 0.00 | 0.01 | 0.01 | 61 | 1010.7 |
| 20260503000843 | 70 | 309 | 0.0 | 1.7 | 0.00 | 0.01 | 0.01 | 63 | 1010.7 |
| 20260503000332 | 70 | 288 | 0.9 | 1.7 | 0.00 | 0.01 | 0.01 | 64 | 1010.7 |
| 20260502235836 | 70 | 280 | 0.0 | 1.7 | 0.00 | 0.01 | 0.01 | 63 | 1010.8 |
| 20260502235340 | 70 | 268 | 0.0 | 2.6 | 0.00 | 0.01 | 0.01 | 65 | 1010.8 |
| 20260502234842 | 70 | 268 | 0.0 | 2.6 | 0.00 | 0.01 | 0.01 | 63 | 1010.9 |
| 20260502234342 | 69 | 299 | 0.9 | 1.7 | 0.00 | 0.01 | 0.01 | 63 | 1010.9 |
| 20260502233840 | 69 | 315 | 0.9 | 1.7 | 0.00 | 0.01 | 0.01 | 63 | 1011.0 |
| 20260502233343 | 69 | 318 | 0.9 | 1.7 | 0.00 | 0.01 | 0.01 | 64 | 1011.0 |
| 20260502232844 | 69 | 4 | 0.0 | 1.7 | 0.00 | 0.01 | 0.01 | 64 | 1011.1 |
| 20260502232346 | 69 | 307 | 0.9 | 1.7 | 0.00 | 0.01 | 0.01 | 64 | 1011.1 |
| 20260502231827 | 69 | 293 | 0.0 | 1.7 | 0.00 | 0.01 | 0.01 | 62 | 1011.2 |
| 20260502231351 | 69 | 293 | 0.0 | 1.7 | 0.00 | 0.01 | 0.01 | 63 | 1011.3 |
| 20260502230833 | 69 | 287 | 0.0 | 2.6 | 0.00 | 0.01 | 0.01 | 62 | 1011.3 |
| 20260502230334 | 69 | 270 | 0.9 | 2.6 | 0.00 | 0.01 | 0.01 | 62 | 1011.4 |
| 20260502225837 | 69 | 292 | 1.7 | 2.6 | 0.00 | 0.01 | 0.01 | 61 | 1011.5 |
| 20260502225356 | 69 | 259 | 0.9 | 1.7 | 0.00 | 0.01 | 0.01 | 61 | 1011.6 |
| 20260502224836 | 69 | 345 | 0.0 | 1.7 | 0.00 | 0.01 | 0.01 | 61 | 1011.6 |
| 20260502224336 | 69 | 284 | 0.0 | 1.7 | 0.00 | 0.01 | 0.01 | 62 | 1011.8 |